FW4199 Weather Reports


Display with metric or nautical units.
time (UTC)temp
F
wind
direction
speed
MPH
gust
MPH
rain 1hr
in
rain 24hr
in
rain mn
in
humidity
%
barometer
mb
20200920065022 39 0.0 4.0 0.00 0.00 0.00 77 1030.1
20200920064017 39 0.0 3.0 0.00 0.00 0.00 76 1030.1
20200920063025 40 0.0 3.0 0.00 0.00 0.00 75 1030.1
20200920062017 40 45 1.0 4.0 0.00 0.00 0.00 75 1030.1
20200920061017 40 45 1.0 7.0 0.00 0.00 0.00 74 1030.0
20200920060022 40 45 1.0 6.0 0.00 0.00 0.00 74 1030.0
20200920055017 41 45 1.0 5.0 0.00 0.00 0.00 73 1029.9
20200920054017 41 0.0 4.0 0.00 0.00 0.00 72 1029.7
20200920053029 41 45 1.0 9.0 0.00 0.00 0.00 71 1029.7
20200920052018 41 0.0 3.0 0.00 0.00 0.00 70 1029.5
20200920051027 41 45 1.0 5.0 0.00 0.00 0.00 69 1029.5
20200920050020 42 45 1.0 9.0 0.00 0.00 0.00 70 1029.5
20200920045017 42 45 1.0 11.0 0.00 0.00 0.00 68 1029.2
20200920044017 42 45 1.0 10.0 0.00 0.00 0.00 68 1029.1
20200920043018 42 0.0 7.0 0.00 0.00 0.00 68 1029.1
20200920042018 42 0.0 3.0 0.00 0.00 0.00 67 1029.0
20200920041022 43 67 1.0 3.0 0.00 0.00 0.00 67 1029.0
20200920040023 43 67 1.0 4.0 0.00 0.00 0.00 69 1029.0
20200920035017 43 0.0 2.0 0.00 0.00 0.00 67 1029.0
20200920034016 43 0.0 3.0 0.00 0.00 0.00 67 1028.8
20200920033027 43 0.0 3.0 0.00 0.00 0.00 66 1028.8
20200920032016 43 0.0 2.0 0.00 0.00 0.00 66 1028.6
20200920031017 44 90 1.0 4.0 0.00 0.00 0.00 65 1028.5
20200920030031 44 90 1.0 4.0 0.00 0.00 0.00 67 1028.5
20200920025018 44 0.0 2.0 0.00 0.00 0.00 65 1028.5
20200920024018 44 45 1.0 4.0 0.00 0.00 0.00 67 1028.4
20200920023034 44 0.0 3.0 0.00 0.00 0.00 65 1028.4
20200920022016 45 0.0 3.0 0.00 0.00 0.00 66 1028.0
20200920021023 45 0.0 3.0 0.00 0.00 0.00 66 1028.0
20200920020024 46 0.0 2.0 0.00 0.00 0.00 66 1028.0
20200920015016 46 45 1.0 4.0 0.00 0.00 0.00 67 1027.8
20200920014018 46 45 1.0 5.0 0.00 0.00 0.00 66 1027.5
20200920013024 47 45 1.0 3.0 0.00 0.00 0.00 62 1027.5
20200920012022 47 45 1.0 3.0 0.00 0.00 0.00 63 1027.5
20200920011016 48 45 1.0 3.0 0.00 0.00 0.00 61 1027.4
20200920010039 48 0.0 3.0 0.00 0.00 0.00 59 1027.5
20200920005020 48 45 1.0 4.0 0.00 0.00 0.00 63 1027.4
20200920004032 49 45 1.0 5.0 0.00 0.00 0.00 59 1027.1
20200920003027 49 45 1.0 5.0 0.00 0.00 0.00 59 1027.1
20200920002017 49 67 1.0 4.0 0.00 0.00 0.00 56 1026.9
20200920001019 50 0.0 3.0 0.00 0.00 0.00 55 1026.6
20200920000022 50 45 1.0 5.0 0.00 0.00 0.00 57 1026.6
20200919235024 50 67 1.0 4.0 0.00 0.00 0.00 52 1026.4
20200919234026 50 45 1.0 4.0 0.00 0.00 0.00 53 1026.2
20200919233023 51 67 1.0 4.0 0.00 0.00 0.00 54 1026.2
20200919232017 51 45 1.0 3.0 0.00 0.00 0.00 51 1026.1
20200919231021 52 45 1.0 5.0 0.00 0.00 0.00 50 1025.9
20200919230037 52 45 1.0 5.0 0.00 0.00 0.00 51 1025.9
20200919225019 53 45 2.0 6.0 0.00 0.00 0.00 49 1025.7
20200919224017 53 45 2.0 5.0 0.00 0.00 0.00 50 1025.7
20200919223019 54 45 1.0 11.0 0.00 0.00 0.00 49 1025.7
20200919222016 54 45 3.0 13.0 0.00 0.00 0.00 47 1025.6
20200919221020 55 45 2.0 10.0 0.00 0.00 0.00 49 1025.4
20200919220023 55 22 2.0 10.0 0.00 0.00 0.00 46 1025.4
20200919215019 55 22 3.0 13.0 0.00 0.00 0.00 43 1025.3
20200919214022 55 90 5.0 19.0 0.00 0.00 0.00 43 1025.2
20200919213032 56 22 2.0 5.0 0.00 0.00 0.00 41 1025.2
20200919212019 56 45 2.0 13.0 0.00 0.00 0.00 40 1024.9
20200919211023 56 22 2.0 12.0 0.00 0.00 0.00 43 1024.8
20200919210021 56 45 3.0 11.0 0.00 0.00 0.00 40 1024.8
20200919205017 57 22 2.0 7.0 0.00 0.00 0.00 38 1024.8
20200919204022 57 0 2.0 9.0 0.00 0.00 0.00 43 1024.6
20200919203018 57 45 3.0 12.0 0.00 0.00 0.00 45 1024.6
20200919202015 57 0 2.0 6.0 0.00 0.00 0.00 43 1024.5
20200919201023 58 45 1.0 6.0 0.00 0.00 0.00 37 1024.7
20200919200023 58 22 3.0 10.0 0.00 0.00 0.00 42 1024.7
20200919195015 58 45 2.0 6.0 0.00 0.00 0.00 44 1024.5
20200919194015 58 45 2.0 5.0 0.00 0.00 0.00 44 1024.6
20200919193021 58 45 3.0 10.0 0.00 0.00 0.00 39 1024.6
20200919192019 58 90 2.0 11.0 0.00 0.00 0.00 42 1024.6
20200919191020 58 112 2.0 7.0 0.00 0.00 0.00 39 1024.8
20200919190029 59 45 2.0 11.0 0.00 0.00 0.00 36 1024.8
20200919185018 59 45 4.0 11.0 0.00 0.00 0.00 39 1024.9
20200919184015 60 22 1.0 7.0 0.00 0.00 0.00 38 1024.9
20200919183019 61 0 2.0 7.0 0.00 0.00 0.00 37 1025.0
20200919182023 62 45 1.0 11.0 0.00 0.00 0.00 37 1024.9
20200919181018 62 45 3.0 10.0 0.00 0.00 0.00 33 1025.1
20200919180023 62 45 3.0 8.0 0.00 0.00 0.00 36 1025.1
20200919175022 62 45 3.0 9.0 0.00 0.00 0.00 36 1025.2
20200919174015 62 22 3.0 7.0 0.00 0.00 0.00 37 1025.3
20200919173019 63 45 2.0 7.0 0.00 0.00 0.00 37 1025.3
20200919172025 62 0 1.0 3.0 0.00 0.00 0.00 38 1025.4
20200919171019 62 67 2.0 5.0 0.00 0.00 0.00 38 1025.4
20200919170021 62 22 3.0 9.0 0.00 0.00 0.00 38 1025.4
20200919165025 62 67 2.0 5.0 0.00 0.00 0.00 42 1025.5
20200919164015 61 135 1.0 5.0 0.00 0.00 0.00 36 1025.6
20200919163029 62 0 1.0 5.0 0.00 0.00 0.00 41 1025.6
20200919162016 61 22 1.0 4.0 0.00 0.00 0.00 39 1025.8
20200919161015 60 22 1.0 7.0 0.00 0.00 0.00 44 1025.8
20200919160016 60 45 1.0 7.0 0.00 0.00 0.00 43 1025.8
20200919155015 59 90 2.0 6.0 0.00 0.00 0.00 44 1025.9
20200919154015 59 45 1.0 8.0 0.00 0.00 0.00 44 1025.9
20200919153017 58 45 1.0 4.0 0.00 0.00 0.00 47 1025.9
20200919152020 58 112 2.0 7.0 0.00 0.00 0.00 43 1026.0
20200919151020 57 22 3.0 9.0 0.00 0.00 0.00 46 1026.1
20200919150032 56 67 3.0 12.0 0.00 0.00 0.00 49 1026.1
20200919145022 55 45 3.0 10.0 0.00 0.00 0.00 49 1026.1
20200919144016 54 45 2.0 6.0 0.00 0.00 0.00 51 1026.0
20200919143039 53 45 2.0 9.0 0.00 0.00 0.00 52 1026.0
20200919142019 52 45 2.0 7.0 0.00 0.00 0.00 53 1025.9
20200919141019 51 45 5.0 19.0 0.00 0.00 0.00 56 1025.9
20200919140025 51 90 2.0 7.0 0.00 0.00 0.00 60 1025.9
20200919135017 50 45 2.0 9.0 0.00 0.00 0.00 58 1025.8
20200919134022 49 45 2.0 8.0 0.00 0.00 0.00 62 1025.7
20200919133019 48 45 1.0 6.0 0.00 0.00 0.00 65 1025.7
20200919132021 48 67 2.0 7.0 0.00 0.00 0.00 66 1025.7
20200919131025 47 45 2.0 6.0 0.00 0.00 0.00 67 1025.5
20200919130022 47 67 2.0 15.0 0.00 0.00 0.00 68 1025.5
20200919125021 46 67 1.0 5.0 0.00 0.00 0.00 70 1025.4
20200919124018 46 45 2.0 10.0 0.00 0.00 0.00 70 1025.2
20200919123032 45 45 2.0 10.0 0.00 0.00 0.00 70 1025.2
20200919122017 44 67 4.0 19.0 0.00 0.00 0.00 73 1024.9
20200919121018 42 45 3.0 10.0 0.00 0.00 0.00 76 1024.8
20200919120020 41 45 2.0 10.0 0.00 0.00 0.00 77 1024.8
20200919115017 41 67 2.0 10.0 0.00 0.00 0.00 79 1024.7
20200919114017 40 67 1.0 6.0 0.00 0.00 0.00 79 1024.4
20200919113019 40 45 1.0 11.0 0.00 0.00 0.00 79 1024.3
20200919112028 39 45 3.0 11.0 0.00 0.00 0.00 79 1024.1
20200919111021 39 45 3.0 15.0 0.00 0.00 0.00 79 1023.8
20200919110021 39 45 2.0 10.0 0.00 0.00 0.00 80 1023.8
20200919105018 39 45 3.0 6.0 0.00 0.00 0.00 81 1023.8
20200919104017 39 22 2.0 7.0 0.00 0.00 0.00 80 1023.5
20200919103031 39 45 2.0 6.0 0.00 0.00 0.00 79 1023.5
20200919102021 39 22 2.0 6.0 0.00 0.00 0.00 79 1023.3
20200919101017 39 45 2.0 5.0 0.00 0.00 0.00 78 1023.1
20200919100033 39 22 1.0 3.0 0.00 0.00 0.00 79 1023.1
20200919095018 39 45 1.0 6.0 0.00 0.00 0.00 79 1022.8
20200919094019 39 45 1.0 6.0 0.00 0.00 0.00 79 1022.6
20200919093019 39 22 1.0 5.0 0.00 0.00 0.00 79 1022.6
20200919092032 40 22 1.0 3.0 0.00 0.00 0.00 79 1022.4
20200919091017 40 45 2.0 5.0 0.00 0.00 0.00 78 1022.4
20200919090024 40 45 2.0 9.0 0.00 0.00 0.00 78 1022.4
20200919085017 40 45 2.0 10.0 0.00 0.00 0.00 77 1022.2
20200919084018 40 45 1.0 9.0 0.00 0.00 0.00 77 1022.1
20200919083035 41 0.0 3.0 0.00 0.00 0.00 76 1022.1
20200919082024 41 45 1.0 9.0 0.00 0.00 0.00 74 1022.1
20200919081018 41 45 1.0 5.0 0.00 0.00 0.00 76 1021.9
20200919080018 41 45 3.0 13.0 0.00 0.00 0.00 74 1022.0
20200919075026 42 22 2.0 8.0 0.00 0.00 0.00 73 1021.8
20200919074017 42 45 3.0 11.0 0.00 0.00 0.00 74 1021.7
20200919073020 42 22 1.0 11.0 0.00 0.00 0.00 72 1021.7
20200919072027 42 22 2.0 11.0 0.00 0.00 0.00 71 1021.6
20200919071017 42 45 2.0 13.0 0.00 0.00 0.00 70 1021.4
20200919070025 43 45 2.0 13.0 0.00 0.00 0.00 70 1021.4